Regional Weather Roundup
Issued by NWS

Home | Current Version | Previous Version | Graphics & Text | Print | Product List | Glossary On
Versions: 1 2 3 4 5 6 7 8 9 10 11 12 13 14 15 16 17 18 19 20 21 22 23 24 25 26 27 28 29 30 31 32 33 34 35 36 37 38 39 40 41 42 43 44 45 46 47 48 49 50
000
ASUS43 KMKX 302211
RWRWI

WISCONSIN REGIONAL WEATHER ROUNDUP
NATIONAL WEATHER SERVICE MILWAUKEE/SULLIVAN WI
500 PM CDT MON MAY 30 2016

NOTE: "FAIR" INDICATES FEW OR NO CLOUDS BELOW 12,000 FEET WITH NO
SIGNIFICANT WEATHER AND/OR OBSTRUCTIONS TO VISIBILITY.

WIZ001-002-006>008-014>016-023>028-302300-
NORTHWEST WISCONSIN

CITY           SKY/WX    TMP DP  RH WIND       PRES   REMARKS
SUPERIOR ARPT  PTSUNNY   78  48  34 E8        29.91S
ASHLAND        MOSUNNY   79  48  33 N6        29.93F
HAYWARD        CLOUDY    79  48  33 SW8       29.95F
SIREN          SUNNY     81  48  31 SW9       29.94F HX  80
CUMBERLAND     SUNNY     79  46  31 SW7       29.96F
RICE LAKE      SUNNY     80  48  32 SW8       29.97F
CHETEK         SUNNY     80  53  38 W3        29.95F HX  80
LADYSMITH      SUNNY     79  49  35 W7        29.98F
EAU CLAIRE     MOSUNNY   81  49  32 SW8       29.95F HX  80
MENOMONIE      SUNNY     83  49  30 W5        29.96F HX  81
NEW RICHMOND   SUNNY     80  51  35 S9        29.95F HX  80
OSCEOLA        MOSUNNY   82  51  34 S5        29.96F HX  80
$$

WIZ003>005-009-010-017-018-302300-
NORTH CENTRAL WISCONSIN

CITY           SKY/WX    TMP DP  RH WIND       PRES   REMARKS
MANITOWISH WTR NOT AVBL
ARBOR VITAE    MOSUNNY   77  45  32 W8        29.98F
WOODRUFF       MOSUNNY   77  45  32 W8        29.98F
RHINELANDER    MOSUNNY   77  44  30 VRB5      29.99F
EAGLE RIVER      N/A     76  39  26 NW6       29.97F
LAND O LAKES   MOSUNNY   76  41  28 NW7       29.99F
PHILLIPS       SUNNY     77  51  41 SW10G16   29.97F
TOMAHAWK       PTSUNNY   74  46  36 NW6       29.99S
MEDFORD        MOSUNNY   77  53  43 SW7       29.98F
MERRILL        MOSUNNY   78  51  39 W7        29.99S
$$

WIZ029-030-035-036-043>047-302300-
CENTRAL WISCONSIN

CITY           SKY/WX    TMP DP  RH WIND       PRES   REMARKS
WAUSAU         SUNNY     80  49  33 W7        29.97F
MOSINEE        SUNNY     77  46  33 W7G18     30.00F
MARSHFIELD     SUNNY     80  49  33 VRB6      29.98F
STEVENS POINT  SUNNY     77  46  34 NW6       29.99F
WAUPACA        SUNNY     82  45  27 CALM      29.98S HX  80
WAUTOMA        SUNNY    N/A N/A N/A NW6       29.97F
WISC RAPIDS    SUNNY     83  45  26 N7        29.99F HX  81
CAMP DOUGLAS   SUNNY     82  55  39 VRB3      29.98S HX  81
$$

WIZ011>013-019>022-031-037>040-048>050-302300-
NORTHEAST WISCONSIN

CITY           SKY/WX    TMP DP  RH WIND       PRES   REMARKS
ANTIGO         SUNNY     75  50  41 CALM      29.99S
SHAWANO        MOSUNNY   82  46  28 NW7       29.96F HX  80
OCONTO         SUNNY     79  49  35 W7        29.94S
STURGEON BAY   NOT AVBL
GREEN BAY      SUNNY     81  51  35 W6        29.97S HX  80
MANITOWOC      SUNNY     71  57  61 SE10      29.98S
APPLETON       MOSUNNY   79  43  27 NW5       29.97S
CLINTONVILLE   SUNNY     81  43  26 NW9       29.97S
OSHKOSH        SUNNY     80  48  32 W3        29.97F
$$

WIZ032>034-041-042-053>061-302300-
SOUTHWEST WISCONSIN

CITY           SKY/WX    TMP DP  RH WIND       PRES   REMARKS
LA CROSSE      SUNNY     83  47  28 VRB3      29.96F HX  81
SPARTA         SUNNY     82  48  30 N5        29.98S HX  81
VIROQUA        SUNNY     82  46  28 S5        30.00S HX  80
BOSCOBEL       SUNNY     84  50  30 VRB5      29.97F HX  82
PRAIRIE DU CHI SUNNY     83  43  24 SE6       29.96F HX  80
PLATTEVILLE    SUNNY     82  44  26 S5        29.99S HX  80
$$

WIZ056-057-062-063-064-067-068-302300-
SOUTH CENTRAL WISCONSIN

CITY           SKY/WX    TMP DP  RH WIND       PRES   REMARKS
REEDSBURG      SUNNY     80  51  36 SW3       29.97F HX  80
BARABOO/DELLS  SUNNY     82  44  25 S8        29.97F HX  80
LONE ROCK      SUNNY     83  48  29 CALM      29.98S HX  81
MINERAL POINT  SUNNY     81  45  28 CALM      30.00S HAZE
MADISON        MOSUNNY   81  49  32 N6        29.97F HX  80
MIDDLETON      SUNNY     82  45  27 NE5       29.99S HX  80
WATERTOWN      SUNNY     80  53  40 N6        29.98S HX  80
MONROE         SUNNY     81  43  26 CALM      29.99S
JANESVILLE     MOSUNNY   82  43  24 NW7       29.97S HX  80
$$

WIZ051-052-058>065-066-070>072-302300-
SOUTHEAST WISCONSIN

CITY           SKY/WX    TMP DP  RH WIND       PRES   REMARKS
MILWAUKEE      MOSUNNY   72  59  63 E8        29.98F
WAUKESHA       SUNNY     79  50  36 NW12      29.99F
MILWAUKEE/TIMM SUNNY     75  54  46 E9        29.99S
RACINE         SUNNY     74  58  57 SE8       30.00F
BURLINGTON     SUNNY     82  48  31 NW6       29.97S HX  80
KENOSHA        SUNNY     76  57  51 E13       29.98F
FOND DU LAC    SUNNY     80  51  36 CALM      29.98S HX  80
SHEBOYGAN      SUNNY     79  49  34 NW7       29.98R
WEST BEND      SUNNY     79  46  31 N7        29.98S
JUNEAU         SUNNY     79  52  39 N5        29.99F
$$

LSZ147-162-302300-
LAKE SUPERIOR

STATION/POSITION TIME  TEMP    WIND        PRES    WAVE
                       AIR SEA DIR/SP/G            HT/PER
                 (UTC) (F)     (DEG/KT/KT) (MB)    (FT/S)
W MID LAKE BUOY  2150   47 38  240/  4/  6 1014.6S   1
DEVILS ISLAND    2200   74      CALM  /  1 1013.7F
SAXON HARBOR     2100   75      70/  7/  7 1014.2S
$$

LMZ867-665-643>646-302300-
LAKE MICHIGAN

STATION/POSITION TIME  TEMP    WIND        PRES    WAVE
                       AIR SEA DIR/SP/G            HT/PER
                 (UTC) (F)     (DEG/KT/KT) (MB)    (FT/S)
CHAMBERS ISLAND  2100   75     170/  4/  8 1014.2F
N MID LAKE BUOY  2150   53 50  190/ 10/ 10 1013.9F   1/ 3
NORTHPORT PIER   2100   65     140/  7/  9 1014.2F
KEWAUNEE LAKESHO 2100   62     180/ 10/ 13 1014.7F
SHEBOYGAN LAKESH 2200   63     170/ 15/ 15 1015.3F
PORT WASHINGTON  2140   68     170/  4/  8 1016.3S
S MID LAKE BUOY  2150   61 59   90/  4/  4 1015.2F   0
KENOSHA   LAKESH 2200   66     130/  2/  4 1014.9F
$$

TC  - TEMPERATURE IN CELSIUS
VSB - VISIBILITY IN STATUTE MILES
WCI - WIND CHILL INDEX
HX  - HEAT INDEX





USA.gov is the U.S. government's official web portal to all federal, state and local government web resources and services.